Home > Weather > Amroha > Past weeks

Flag for India Weather for the Past 2 Weeks in Amroha, Uttar Pradesh, India

Now
52 °F

Fog.


Feels Like: 51 °F
Forecast: 51 / 75 °F
Wind: 3 mph from Southwest

Location: New Delhi Palam Airport

Current Time: Feb 9, 2016 at 5:30:28 AM

Latest Report: Feb 9, 2016 at 4:30 AM


Visibility: 0 mi

Pressure: 29.98 "Hg

Humidity: 100%

Dew point: 52 °F

Location of AmrohaLocation

Historic Weather in Amroha — Graph

°F

Amroha Temperature Yesterday

Maximum temperature yesterday: 72 °F (at 12:30 PM)
Minimum temperature yesterday: 55 °F (at 11:30 PM)
Average temperature yesterday: 66 °F

High & Low Weather Summary for the Past Weeks

 TemperatureHumidityPressure
High79 °F (Jan 30, 1:30 PM)100% (Jan 25, 3:30 AM)30.12 "Hg (Jan 25, 3:30 AM)
Low43 °F (Jan 25, 6:00 AM)25% (Feb 4, 2:30 PM)29.86 "Hg (Feb 6, 4:30 PM)
Average61 °F65%30.01 "Hg
* Reported Jan 25 3:30 AM — Feb 9 4:00 AM, Amroha, Weather by CustomWeather, © 2016

Note: Actual official high and low records may vary slightly from our data, if they occured in-between our weather recording intervals... More about our weather records

Advertising

Amroha Weather History for the Previous 24 Hours

 ConditionsComfort  
Time TempWeatherWind HumidityBarometerVisibility
4:00 AM
Tue, Feb 9
52 °FFog.5 mph100%29.98 "Hg0 mi
3:30 AM52 °FFog.5 mph100%29.98 "Hg0 mi
3:00 AM54 °FFog.No wind94%30.01 "Hg1 mi
2:30 AM54 °FFog.No wind94%30.01 "Hg1 mi
2:00 AM54 °FFog.No wind94%30.01 "Hg1 mi
1:30 AM54 °FFog.No wind94%30.01 "Hg1 mi
1:00 AM55 °FFog.No wind88%30.01 "Hg1 mi
12:30 AM55 °FFog.No wind88%30.01 "Hg1 mi
12:00 AM55 °FFog.No wind88%30.04 "Hg1 mi
11:30 PM
Mon, Feb 8
55 °FFog.No wind88%30.04 "Hg1 mi
11:00 PM57 °FFog.No wind82%30.04 "Hg1 mi
10:30 PM57 °FFog.3 mph82%30.04 "Hg1 mi
10:00 PM59 °FFog.3 mph77%30.04 "Hg1 mi
9:30 PM61 °FHaze.3 mph72%30.04 "Hg1 mi
9:00 PM63 °FHaze.3 mph68%30.04 "Hg1 mi
8:30 PM63 °FHaze.3 mph68%30.04 "Hg1 mi
8:00 PM66 °FHaze.6 mph64%30.04 "Hg1 mi
7:30 PM66 °FHaze.6 mph64%30.04 "Hg1 mi
7:00 PM66 °FHaze.6 mph64%30.01 "Hg1 mi
6:30 PM68 °FHaze.8 mph56%30.01 "Hg2 mi
6:00 PM68 °FHaze.8 mph56%30.01 "Hg2 mi
5:30 PM70 °FHaze.9 mph50%30.01 "Hg2 mi
5:00 PM72 °FHaze.10 mph47%30.01 "Hg2 mi
4:30 PM72 °FHaze.9 mph44%30.01 "Hg2 mi
3:30 PM72 °FHaze.9 mph44%30.01 "Hg2 mi
3:00 PM72 °FHaze.9 mph41%30.01 "Hg2 mi
2:30 PM72 °FHaze.10 mph41%30.04 "Hg2 mi
1:30 PM72 °FHaze.9 mph38%30.07 "Hg2 mi
1:00 PM72 °FHaze.10 mph38%30.07 "Hg2 mi
12:30 PM72 °FHaze.9 mph38%30.07 "Hg2 mi
12:00 PM68 °FHaze.6 mph46%30.09 "Hg1 mi
11:30 AM68 °FClear.6 mph43%30.09 "Hg1 mi
11:00 AM64 °FRain. Cloudy.6 mph52%30.09 "Hg1 mi
10:30 AM61 °FRain. Cloudy.6 mph59%30.09 "Hg1 mi
Weather by CustomWeather, © 2016

See weather overviewHow to use our weather pages